Wind_Speed
5 5 5 4 4 4 3 2 1 2 2 1 2 3 3 4 5 5 4 4 5 5 6 6 6 6 6 7 8 8 8 8 9 9 9 10 11 11 10 11 11 10 11
5 5 5 5 5 4 3 3 2 1 1 1 0 2 3 4 4 4 5 5 5 5 5 6 7 7 7 8 8 8 8 9 8 8 9 9 10 11 11 11 11 11 11
6 6 6 6 5 4 3 3 2 2 2 1 1 1 1 2 2 4 5 5 5 5 5 6 7 8 7 7 8 8 8 9 8 9 10 11 12 12 12 13 12 12 11
6 6 6 6 5 5 3 2 2 2 2 2 2 1 1 2 3 4 5 6 6 6 6 6 7 8 9 7 8 8 8 8 8 9 11 11 13 13 13 13 13 12 12
5 5 5 5 5 4 4 2 2 3 2 2 2 2 1 2 3 4 5 6 6 6 6 7 7 8 8 7 8 8 8 8 9 9 10 11 12 13 13 13 13 13 13
5 5 5 4 4 5 5 3 3 3 3 3 4 3 3 3 4 4 5 6 6 7 7 7 7 7 8 8 9 9 9 9 10 10 11 11 11 12 13 13 13 13 13
5 5 4 4 4 5 5 5 4 4 3 4 4 4 4 4 5 5 6 6 7 7 7 7 8 8 8 8 9 10 10 11 11 11 12 12 13 13 13 14 14 14 14
6 5 5 5 5 5 5 5 5 4 4 4 3 3 4 4 5 6 6 6 7 7 8 8 8 8 8 9 10 10 11 11 12 12 12 13 14 14 14 14 15 16 16
6 6 6 6 5 5 5 5 5 4 4 4 4 4 4 5 6 6 6 6 6 7 8 9 9 9 9 10 10 11 12 12 12 13 14 14 14 15 15 16 16 16 17
5 5 6 6 6 5 5 5 5 5 5 5 5 5 5 6 7 7 7 7 8 8 9 10 9 10 10 9 10 11 11 12 12 12 13 13 13 14 14 15 15 16 17
5 5 5 6 6 5 5 5 5 5 6 5 5 5 6 6 7 7 8 8 9 9 9 9 9 9 10 10 11 12 12 12 12 12 12 12 13 13 14 15 15 16 17
5 5 5 5 5 5 5 5 5 5 5 5 5 5 6 6 7 8 8 9 9 9 10 9 9 10 11 12 11 10 11 13 13 12 12 12 13 13 14 14 15 16 16
5 5 5 5 5 5 6 7 6 6 6 6 6 6 7 7 7 8 8 9 9 9 10 10 10 11 11 12 12 12 12 13 13 13 13 13 14 14 14 14 15 16 17
5 5 6 6 6 6 7 7 7 7 7 7 7 7 7 7 8 9 9 9 9 10 10 11 12 12 12 12 13 13 13 13 13 14 14 14 14 15 15 15 16 17 17
5 6 6 7 7 7 8 8 8 8 7 7 8 8 8 8 9 9 9 10 10 11 11 12 12 13 13 13 13 13 13 13 13 14 14 15 16 16 16 16 16 17 17
6 7 7 7 8 8 8 8 8 8 8 8 8 8 9 9 10 10 11 11 10 11 12 12 12 13 13 13 13 13 13 14 14 14 15 15 15 15 15 16 16 17 17
8 8 8 8 8 9 8 8 8 8 8 8 9 9 9 10 11 11 11 11 12 12 12 12 13 13 13 14 14 14 14 14 15 15 15 14 15 15 15 16 16 17 18
9 9 9 8 8 8 8 8 9 9 9 10 10 10 10 10 11 11 12 12 12 12 12 12 13 14 14 14 14 14 15 15 15 16 15 15 15 15 16 16 17 17 18
10 9 10 9 9 9 9 10 10 9 10 10 11 11 11 11 12 12 13 14 14 14 14 14 14 15 15 15 15 15 16 16 16 16 15 15 15 15 16 16 17 18 19
11 10 11 10 10 10 11 11 11 11 11 12 12 12 12 13 13 14 14 15 15 15 15 15 15 16 16 17 17 17 16 16 16 16 16 16 16 17 17 18 19 19 20
13 13 13 12 12 12 12 12 13 13 13 13 13 13 14 14 15 15 15 15 15 16 16 17 17 18 18 19 19 18 17 17 17 18 17 17 17 18 19 19 20 20 21
15 15 15 15 14 14 14 13 14 14 15 15 16 15 15 15 15 16 16 17 17 17 18 18 18 19 19 19 19 19 19 19 19 19 19 19 19 19 20 21 21 21 22
16 16 16 16 16 16 16 16 15 15 15 16 16 16 17 17 17 18 18 18 18 18 18 19 19 20 20 20 20 20 20 20 21 21 21 20 21 21 21 22 22 23 23
18 18 17 18 18 18 18 18 18 18 17 17 17 18 18 18 19 19 19 19 19 19 19 20 20 21 21 20 20 21 21 22 22 22 22 22 22 22 23 24 24 24 23
21 20 20 20 20 20 20 21 21 20 20 19 19 20 20 20 20 20 21 21 21 21 21 21 22 22 22 22 23 23 23 24 23 23 24 24 24 24 24 24 25 25 24
23 23 23 23 23 22 22 23 23 23 22 22 22 22 22 22 22 22 23 22 22 22 23 23 23 23 24 24 24 24 25 25 25 25 25 25 25 25 25 25 25 25 25
Wind_Direction
87 79 72 69 58 57 71 91 148 187 175 194 229 243 248 256 252 253 262 276 266 259 266 266 271 278 280 280 282 283 282 280 272 272 271 272 272 271 270 268 269 265 260
76 72 70 65 61 60 70 88 88 80 92 70 319 252 248 250 254 261 268 275 271 269 275 276 277 276 282 286 289 287 283 280 271 272 274 273 272 274 273 270 272 270 267
73 69 68 66 65 64 74 79 78 62 52 42 4 334 276 288 278 282 283 286 278 274 279 285 283 281 287 288 291 294 284 283 273 270 271 272 273 273 272 272 271 271 270
72 68 66 64 62 58 57 61 61 52 50 36 31 9 337 317 291 288 294 294 283 281 284 287 288 282 286 287 291 293 289 287 279 277 276 274 273 271 273 274 272 273 270
66 57 58 54 52 50 39 35 45 30 33 27 16 359 328 330 316 307 302 303 301 295 290 287 287 281 282 287 289 293 291 284 287 283 281 278 276 271 271 274 276 274 272
61 53 53 55 49 40 30 21 7 5 14 7 358 355 340 331 325 315 307 301 305 301 292 296 292 288 286 290 291 289 287 286 288 288 285 283 282 278 274 276 276 274 275
60 49 46 50 40 29 27 25 13 6 1 1 359 344 331 322 321 317 315 307 305 303 296 296 300 298 294 292 291 291 289 289 291 289 288 287 283 284 282 277 274 274 274
60 58 54 52 40 28 21 17 14 12 1 357 350 337 332 327 325 324 324 316 311 303 302 304 305 302 297 293 291 288 290 288 289 288 288 286 285 283 283 280 278 277 276
54 53 54 52 45 35 26 12 7 4 358 350 348 343 337 330 328 330 329 321 314 306 306 311 310 309 300 292 292 293 294 292 289 289 287 286 285 284 281 279 280 280 279
47 45 48 43 35 31 17 7 2 359 353 352 347 342 338 329 324 329 328 322 318 313 310 310 308 308 306 299 299 300 299 296 294 293 291 291 288 285 282 281 281 282 281
40 35 37 29 23 15 7 7 6 3 1 354 344 336 334 331 330 333 332 329 326 322 319 314 309 310 310 307 302 300 297 300 297 296 297 294 291 290 286 285 286 287 285
28 23 16 8 6 1 358 356 357 355 1 0 351 342 334 334 337 335 332 332 328 323 321 320 319 313 309 305 305 301 300 302 299 295 297 295 294 294 292 290 290 289 287
11 6 358 353 355 352 353 349 346 351 350 346 341 338 334 336 336 331 329 328 325 321 318 316 317 316 313 309 304 301 305 306 301 296 295 295 295 295 294 293 291 289 288
348 346 345 343 343 346 348 345 340 342 342 337 335 331 330 332 330 325 324 326 323 319 315 315 315 315 315 314 311 306 305 306 304 301 297 298 297 296 295 294 293 292 291
337 335 335 332 334 338 340 336 338 338 333 329 330 328 324 325 324 321 321 323 320 318 315 314 314 315 315 316 315 311 308 307 307 304 302 300 298 296 296 295 296 296 294
322 323 323 318 323 331 334 332 330 328 324 320 320 323 321 320 319 315 314 316 319 319 317 316 316 314 314 313 311 311 309 308 307 308 304 302 300 298 297 296 298 298 298
311 314 313 308 310 321 324 324 326 324 323 322 315 311 313 316 319 316 315 315 318 318 317 316 317 317 317 314 310 311 310 311 312 309 307 304 303 303 300 298 299 300 300
305 303 304 302 300 308 312 315 318 317 317 317 317 312 309 310 315 316 316 316 314 313 314 313 313 313 313 314 311 312 312 311 311 310 307 305 304 303 300 300 301 301 302
303 299 300 304 302 301 302 306 308 310 312 312 312 314 314 315 315 315 312 310 308 308 309 308 309 309 309 309 311 311 312 311 308 309 307 304 304 302 303 303 303 302 303
293 294 295 298 302 303 301 303 308 305 303 305 304 306 310 313 315 314 312 308 307 309 309 307 307 307 306 306 306 306 308 308 307 308 308 304 304 304 304 303 303 302 302
286 287 290 292 295 299 301 301 302 304 302 301 301 300 303 306 309 312 312 309 308 308 308 308 308 309 306 304 303 304 306 306 307 308 307 305 304 302 302 301 302 303 303
284 283 284 287 289 292 295 298 301 304 302 300 298 298 300 301 303 306 307 305 307 307 306 306 306 307 308 306 306 306 305 305 304 306 306 305 304 302 301 302 302 303 303
286 283 283 284 286 288 291 295 297 300 304 303 300 299 300 300 301 302 304 304 304 305 306 304 304 305 304 304 305 306 305 303 302 303 303 301 301 302 302 302 303 303 303
284 282 281 282 283 285 288 290 291 292 296 299 300 300 299 299 299 300 301 303 304 304 305 304 303 304 303 303 303 303 303 302 302 301 302 301 299 300 302 303 302 302 301
282 281 280 280 281 284 285 287 288 289 291 294 296 298 298 299 299 298 298 299 302 302 302 302 303 303 303 302 301 300 300 300 300 300 300 299 298 299 300 301 301 301 300
280 280 279 278 278 281 282 283 285 287 290 291 292 294 295 295 295 294 295 297 299 299 299 301 302 302 302 300 299 299 300 301 301 299 299 298 297 297 298 298 299 300 300
Height
5889 5889 5888 5887 5886 5885 5883 5882 5883 5884 5885 5885 5885 5886 5886 5886 5886 5886 5886 5885 5885 5885 5884 5884 5883 5883 5882 5882 5881 5880 5879 5878 5878 5878 5878 5877 5877 5877 5876 5876 5876 5876 5875
5890 5889 5889 5888 5887 5886 5885 5885 5885 5885 5885 5885 5885 5885 5885 5885 5885 5885 5885 5884 5884 5883 5883 5882 5882 5881 5881 5880 5880 5879 5878 5877 5877 5876 5876 5875 5875 5875 5874 5874 5873 5873 5873
5890 5890 5890 5889 5888 5888 5887 5886 5886 5886 5886 5886 5885 5885 5885 5885 5884 5884 5884 5883 5883 5882 5882 5881 5880 5880 5879 5879 5878 5877 5876 5875 5874 5874 5874 5873 5873 5872 5872 5872 5871 5871 5870
5891 5891 5890 5890 5889 5888 5887 5887 5887 5886 5886 5885 5885 5885 5884 5884 5884 5883 5883 5882 5881 5881 5881 5880 5879 5879 5878 5877 5876 5875 5874 5873 5872 5872 5871 5871 5870 5870 5869 5869 5869 5868 5868
5892 5891 5890 5890 5889 5889 5888 5887 5887 5886 5886 5885 5885 5884 5884 5884 5883 5882 5882 5881 5880 5880 5879 5878 5878 5877 5876 5875 5874 5873 5872 5871 5870 5869 5869 5868 5868 5867 5867 5866 5866 5865 5865
5892 5891 5891 5890 5890 5889 5888 5887 5887 5886 5886 5885 5885 5884 5883 5883 5882 5881 5881 5880 5879 5878 5877 5877 5876 5875 5874 5873 5872 5871 5870 5869 5868 5867 5866 5866 5865 5864 5863 5863 5862 5862 5861
5892 5891 5891 5890 5890 5889 5888 5887 5887 5886 5886 5885 5884 5884 5883 5882 5881 5880 5880 5879 5878 5877 5876 5875 5875 5873 5872 5871 5870 5869 5868 5867 5866 5865 5864 5863 5862 5861 5860 5859 5859 5858 5858
5893 5892 5891 5890 5890 5889 5888 5887 5886 5886 5885 5885 5884 5883 5882 5882 5880 5879 5879 5878 5877 5875 5874 5873 5872 5871 5870 5869 5868 5867 5866 5865 5864 5862 5861 5860 5859 5858 5857 5856 5855 5855 5854
5893 5892 5891 5891 5890 5889 5888 5887 5886 5886 5885 5884 5883 5883 5882 5881 5880 5879 5877 5877 5875 5874 5873 5872 5870 5869 5868 5867 5866 5865 5864 5862 5861 5859 5858 5857 5856 5855 5854 5853 5852 5851 5850
5893 5893 5892 5891 5890 5889 5888 5887 5886 5885 5884 5883 5883 5882 5881 5880 5879 5878 5877 5876 5874 5873 5872 5870 5869 5867 5866 5865 5864 5862 5861 5859 5858 5856 5854 5853 5852 5851 5850 5849 5848 5847 5846
5894 5893 5892 5891 5890 5889 5888 5887 5886 5885 5884 5882 5881 5881 5880 5879 5878 5877 5876 5875 5873 5871 5870 5868 5867 5865 5864 5862 5861 5859 5858 5857 5855 5853 5851 5850 5849 5847 5846 5845 5844 5843 5841
5894 5893 5892 5891 5889 5888 5887 5886 5885 5884 5883 5882 5881 5880 5879 5878 5877 5876 5875 5873 5872 5870 5868 5866 5865 5863 5862 5860 5858 5856 5855 5853 5852 5850 5848 5847 5845 5844 5843 5841 5840 5838 5837
5894 5893 5892 5890 5889 5888 5887 5885 5884 5883 5882 5881 5880 5879 5878 5877 5875 5874 5873 5871 5870 5868 5866 5864 5863 5861 5859 5857 5855 5854 5852 5850 5848 5847 5845 5844 5842 5840 5839 5837 5836 5834 5833
5894 5893 5891 5890 5888 5887 5886 5884 5883 5882 5881 5880 5879 5877 5876 5875 5874 5872 5871 5869 5868 5866 5864 5862 5860 5858 5856 5854 5852 5850 5848 5847 5845 5843 5842 5840 5838 5836 5835 5833 5832 5830 5828
5893 5892 5890 5889 5887 5886 5885 5883 5882 5881 5880 5878 5877 5875 5874 5873 5871 5870 5868 5867 5866 5863 5861 5859 5857 5855 5853 5851 5849 5847 5845 5843 5842 5840 5838 5836 5834 5833 5831 5829 5827 5826 5824
5892 5890 5889 5887 5886 5884 5883 5882 5881 5879 5878 5876 5875 5873 5872 5871 5869 5867 5866 5864 5862 5861 5858 5856 5854 5852 5850 5848 5846 5844 5842 5840 5838 5836 5834 5832 5830 5828 5827 5825 5823 5821 5819
5890 5888 5887 5885 5884 5882 5881 5880 5878 5877 5875 5874 5872 5871 5870 5868 5866 5864 5862 5861 5859 5857 5855 5853 5851 5849 5847 5845 5843 5841 5839 5836 5834 5832 5830 5828 5826 5824 5822 5820 5818 5816 5814
5888 5886 5885 5883 5882 5880 5879 5878 5876 5874 5873 5872 5870 5868 5867 5865 5863 5861 5859 5857 5856 5854 5852 5850 5848 5846 5844 5842 5839 5837 5835 5833 5830 5828 5826 5824 5822 5820 5818 5816 5814 5811 5809
5885 5884 5883 5881 5879 5878 5877 5875 5874 5872 5870 5869 5867 5865 5864 5862 5860 5858 5856 5854 5852 5850 5848 5846 5844 5842 5840 5838 5835 5833 5831 5829 5826 5824 5822 5820 5818 5815 5813 5811 5809 5806 5804
5882 5881 5879 5878 5876 5875 5874 5872 5870 5869 5867 5866 5864 5862 5861 5859 5857 5855 5853 5850 5848 5846 5844 5842 5840 5838 5836 5834 5831 5829 5827 5825 5822 5820 5817 5815 5813 5811 5809 5807 5804 5802 5799
5878 5877 5876 5875 5873 5872 5870 5869 5867 5866 5864 5862 5861 5859 5857 5855 5853 5851 5849 5847 5845 5843 5841 5838 5836 5834 5832 5829 5827 5825 5823 5821 5818 5815 5813 5811 5808 5806 5804 5801 5799 5796 5794
5874 5873 5872 5871 5870 5868 5867 5865 5863 5862 5860 5858 5857 5855 5853 5851 5849 5847 5844 5842 5840 5838 5836 5834 5832 5830 5827 5825 5822 5820 5818 5816 5814 5811 5809 5806 5803 5801 5799 5796 5794 5791 5788
5870 5869 5868 5866 5865 5864 5862 5861 5859 5858 5856 5854 5852 5851 5849 5847 5845 5843 5840 5838 5836 5834 5832 5830 5827 5825 5823 5820 5818 5815 5813 5810 5808 5805 5803 5800 5798 5795 5793 5790 5787 5785 5782
5864 5863 5862 5861 5860 5858 5857 5856 5855 5853 5852 5850 5848 5846 5844 5842 5840 5838 5836 5833 5831 5829 5827 5824 5822 5820 5817 5815 5813 5811 5808 5805 5802 5800 5797 5795 5792 5789 5787 5784 5781 5778 5776
5858 5857 5856 5855 5853 5852 5851 5850 5849 5847 5846 5845 5843 5841 5839 5837 5835 5833 5831 5828 5826 5824 5822 5819 5817 5814 5812 5810 5807 5805 5802 5799 5797 5794 5791 5788 5786 5783 5781 5778 5775 5772 5769
5852 5850 5849 5848 5847 5846 5845 5844 5842 5841 5840 5839 5837 5835 5834 5832 5830 5827 5825 5823 5821 5818 5816 5813 5811 5809 5806 5804 5801 5799 5796 5793 5790 5788 5785 5782 5779 5776 5774 5772 5768 5765 5762